Windsor, Ontario

11:54 PM EDT on June 23, 2017 (GMT -0400)
Windsor

Weather History for CYQG - November, 2012

Change the Weather History Date:

Friday, November 9, 2012

  Actual Average Record
Temperature  
Mean Temperature 42 °F -  
Max Temperature 50 °F 43 °F 73 °F (1999)
Min Temperature 33 °F 30 °F 24 °F (2003)
Degree Days  
Heating Degree Days 24    
Moisture  
Dew Point 37 °F    
Average Humidity 81    
Maximum Humidity 93    
Minimum Humidity 57    
Precipitation  
Precipitation 0.03 in 0.10 in - ()
Sea Level Pressure  
Sea Level Pressure 30.17 in    
Wind  
Wind Speed 5 mph ()    
Max Wind Speed 13 mph    
Max Gust Speed 17 mph    
Visibility 6.9 miles    
Events Rain    
Averages and records for this station are not official NWS values.
T = Trace of Precipitation, MM = Missing Value Source: Averaged Metar Reports

Daily Weather History Graph

Daily Weather History Graph

Search for Another Location

Airport or City:

Trip Planner

Search our weather history database for the weather conditions in past years. The results will help you decide how hot, cold, wet, or windy it might be!

Date:

Astronomy

Nov. 09, 2012 Rise Set
Actual Time 7:15 AM EST 5:15 PM EST
Civil Twilight 6:45 AM EST 5:45 PM EST
Nautical Twilight 6:12 AM EST 6:18 PM EST
Astronomical Twilight 5:39 AM EST 6:51 PM EST
Moon 2:07 AM EST (11/9) 2:32 PM EST (11/9)
Length of Visible Light 10h 59m
Length of Day
9h 59m
Waning Crescent, 23% of the Moon is Illuminated
Nov 9
Waning Crescent
Nov 13
New
Nov 20
First Quarter
Nov 28
Full
Dec 6
Last Quarter

Hourly Weather History & Observations

Time (EST) Temp. Windchill Dew Point Humidity Pressure Visibility Wind Dir Wind Speed Gust Speed Precip Events Conditions
12:00 AM 33.8 °F - 32.0 °F 93% 30.17 in 12.0 mi Calm Calm - N/A   Clear
1:00 AM 35 °F - 33 °F 88% 30.17 in 15 mi WSW 2.3 mph - -  
1:00 AM 35.6 °F - 32.0 °F 87% 30.17 in 15.0 mi WSW 2.3 mph - N/A   Clear
2:00 AM 35.6 °F 32.8 °F 33.8 °F 93% 30.17 in 15.0 mi West 3.5 mph - N/A   Clear
3:00 AM 35.6 °F 31.7 °F 33.8 °F 93% 30.18 in 15.0 mi West 4.6 mph - N/A   Clear
4:00 AM 33.8 °F - 32.0 °F 93% 30.18 in 8.0 mi Calm Calm - N/A   Clear
5:00 AM 33.8 °F 30.8 °F 32.0 °F 93% 30.20 in 6.0 mi SW 3.5 mph - N/A   Partly Cloudy
6:00 AM 33.8 °F 27.7 °F 32.0 °F 93% 30.20 in 6.0 mi SW 6.9 mph - N/A   Mostly Cloudy
7:00 AM 35 °F - 33 °F 91% 30.21 in 3 mi SW 6.9 mph - -   Mist
7:00 AM 35.6 °F 29.9 °F 33.8 °F 93% 30.21 in 3.0 mi SW 6.9 mph - N/A   Mostly Cloudy
8:00 AM 37.4 °F 32.8 °F 33.8 °F 87% 30.22 in 4.0 mi WSW 5.8 mph - N/A   Overcast
9:00 AM 39.2 °F 33.6 °F 35.6 °F 87% 30.23 in 3.0 mi SW 8.1 mph - N/A   Overcast
10:00 AM 41.0 °F 34.7 °F 37.4 °F 87% 30.22 in 4.0 mi SW 10.4 mph - N/A   Haze
11:00 AM 44.6 °F 39.7 °F 37.4 °F 76% 30.22 in 6.0 mi SW 9.2 mph - N/A   Haze
12:00 PM 46.4 °F 41.1 °F 37.4 °F 71% 30.20 in 7.0 mi WSW 11.5 mph - N/A   Mostly Cloudy
1:00 PM 48 °F - 38 °F 57% 30.18 in 7 mi SW 12.7 mph - -   Scattered Clouds
1:00 PM 48.2 °F - 37.4 °F 66% 30.18 in 7.0 mi SW 11.5 mph 17.3 mph N/A   Mostly Cloudy
2:00 PM 50.0 °F - 39.2 °F 66% 30.16 in 8.0 mi SW 8.1 mph - N/A   Mostly Cloudy
3:00 PM 50.0 °F - 39.2 °F 66% 30.15 in 10.0 mi SSW 10.4 mph - N/A   Scattered Clouds
4:00 PM 50.0 °F - 39.2 °F 66% 30.14 in 8.0 mi SSW 9.2 mph - N/A   Partly Cloudy
5:00 PM 48.2 °F - 39.2 °F 71% 30.13 in 7.0 mi South 6.9 mph - N/A   Mostly Cloudy
6:00 PM 46.4 °F 45.2 °F 39.2 °F 76% 30.14 in 6.0 mi SE 3.5 mph - N/A   Haze
7:00 PM 47 °F - 40 °F 69% 30.13 in 6 mi ESE 4.6 mph - -   Haze
7:00 PM 46.4 °F 44.3 °F 39.2 °F 76% 30.13 in 6.0 mi ESE 4.6 mph - N/A   Haze
7:37 PM - - - N/A% - 6.0 mi ENE 5.8 mph - N/A Rain Light Rain Showers
8:00 PM 46.4 °F 44.3 °F 41.0 °F 81% 30.13 in 6.0 mi ENE 4.6 mph - N/A   Haze
8:25 PM - - - N/A% - 5.0 mi NE 3.5 mph - N/A   Haze
9:00 PM 46.4 °F 43.5 °F 41.0 °F 81% 30.13 in 5.0 mi ENE 5.8 mph - N/A   Haze
9:04 PM - - - N/A% - 5.0 mi ENE 5.8 mph - N/A Rain Light Rain Showers
9:50 PM - - - N/A% - 5.0 mi NE 5.8 mph - N/A   Overcast
10:00 PM 46.4 °F 43.5 °F 42.8 °F 87% 30.14 in 5.0 mi NE 5.8 mph - N/A   Overcast
10:20 PM - - - N/A% - 4.0 mi NNE 3.5 mph - N/A Rain Light Rain Showers
11:00 PM 44.6 °F 42.2 °F 42.8 °F 93% 30.16 in 4.0 mi North 4.6 mph - N/A Rain Light Rain Showers
11:41 PM - - - N/A% - 3.0 mi ENE 4.6 mph - N/A   Overcast